Simultaneous Nadir Overpasses (SNOs) Predictions

Prediction of SNOs between AQUA and NPP Satellite Orbit:

Table of predicted SNOs for the next 14.0 days since TLE Epoch: 12/8/2012
Index Date (AQUA) Time (AQUA) Lat,Lon (AQUA) SZA (AQUA ) Date (NPP) Time (NPP) Lat,Lon (NPP) SZA (NPP ) Distance(km) Time Diff (sec)
1 12/09/2012 23:27:15 76.94, 70.24 118.13 12/09/2012 23:26:53 76.94, 70.24 118.15 0.11 22
2 12/10/2012 00:16:28 -77.61,-119.50 62.63 12/10/2012 00:17:23 -77.60,-119.54 62.67 1.06 55
3 12/12/2012 14:57:21 -67.55, -0.18 52.46 12/12/2012 14:56:08 -67.71, -1.38 52.08 53.57 73
4 12/12/2012 15:43:45 77.08,-173.38 118.25 12/12/2012 15:43:45 77.07,-173.44 118.26 1.86 0
5 12/12/2012 16:31:13 -81.35, 26.72 68.05 12/12/2012 16:32:27 -81.00, 27.36 68.26 40.52 74
6 12/15/2012
